Location: Emporia
(38.4040°N, 96.1810°W)
Time: 09:57:40
(UTC-05:00)

ISS - Visible Passes

Search period start: 30 August 2016 00:00
Search period end: 09 September 2016 00:00
Orbit: 402 x 406 km, 51.6° (Epoch: 30 August)

Date Brightness Start Highest point End Pass type
(mag) Time Alt. Az. Time Alt. Az. Time Alt. Az.
02 Sep -0.8 06:15:23 10° S 06:17:46 19° SE 06:20:10 10° E visible
04 Sep -2.6 06:05:59 10° SSW 06:09:08 49° SE 06:12:19 10° ENE visible
05 Sep -1.5 05:16:03 22° SSE 05:16:48 24° SE 05:19:30 10° ENE visible
06 Sep -3.2 05:58:41 22° WSW 06:00:37 62° NW 06:03:52 10° NE visible
07 Sep -2.8 05:08:33 56° E 05:08:33 56° E 05:11:26 10° ENE visible
08 Sep 0.0 04:18:22 12° ENE 04:18:22 12° ENE 04:18:43 10° ENE visible
08 Sep -2.0 05:51:01 22° WNW 05:52:14 28° NNW 05:55:09 10° NNE visible
